Le nostre stazioni meteo in Italia

Pubblicità
Il mio iltempo24.it
Lentran, Gran Bretagna (99125): Temperatura & dewpoint: 22.03.2017 10:00:00 - 28.03.2017 10:00:00 (BST)Lentran, Gran Bretagna (99125): precipitazioni: 22.03.2017 10:00:00 - 28.03.2017 10:00:00 (BST)
Data & Tempo tt [°C] td [°C] rr [mm]
28.03.2017 10:00:00 4,6 4,6 0,0
28.03.2017 09:00:00 4,5 4,5 0,0
28.03.2017 08:00:00 4,3 4,3 0,0
28.03.2017 07:00:00 4,4 4,4 0,0
28.03.2017 06:00:00 4,7 4,7 0,0
28.03.2017 05:00:00 5,0 5,0 0,0
28.03.2017 04:00:00 5,1 5,1 0,0
28.03.2017 03:00:00 5,3 5,3 0,0
28.03.2017 02:00:00 5,2 5,2 0,0
28.03.2017 01:00:00 5,2 5,2 0,0
28.03.2017 00:00:00 5,2 5,2 0,0
27.03.2017 23:00:00 5,0 5,0 0,0
27.03.2017 22:00:00 4,0 3,0 0,0
27.03.2017 21:00:00 5,5 3,9 0,0
27.03.2017 20:00:00 7,8 4,5 0,0
27.03.2017 19:00:00 10,3 4,4 0,0
27.03.2017 18:00:00 12,1 4,7 0,0
27.03.2017 17:00:00 13,4 4,2 0,0
27.03.2017 16:00:00 13,3 3,9 0,0
27.03.2017 15:00:00 13,2 4,6 0,0
27.03.2017 14:00:00 13,2 3,7 0,0
27.03.2017 13:00:00 13,0 3,9 0,0
27.03.2017 12:00:00 11,4 3,8 0,0
27.03.2017 11:00:00 9,7 3,5 0,0
27.03.2017 10:00:00 6,8 4,3 0,0
27.03.2017 09:00:00 3,3 2,8 0,0
27.03.2017 08:00:00 2,0 1,6 0,0
27.03.2017 07:00:00 1,3 0,4 0,0
27.03.2017 06:00:00 1,9 1,0 0,0
27.03.2017 05:00:00 1,8 0,9 0,0
27.03.2017 04:00:00 1,9 0,6 0,0
27.03.2017 03:00:00 2,2 0,7 0,0
27.03.2017 02:00:00 2,1 0,2 0,0
27.03.2017 01:00:00 2,7 0,6 0,0
27.03.2017 00:00:00 3,1 0,5 0,0
26.03.2017 23:00:00 3,2 0,4 0,0
26.03.2017 22:00:00 4,4 1,1 0,0
26.03.2017 21:00:00 5,4 1,0 0,0
26.03.2017 20:00:00 7,8 1,0 0,0
26.03.2017 19:00:00 10,4 2,4 0,0
26.03.2017 18:00:00 13,7 0,4 0,0
26.03.2017 17:00:00 15,3 -0,2 0,0
26.03.2017 16:00:00 16,7 0,4 0,0
26.03.2017 15:00:00 15,7 -1,0 0,0
26.03.2017 14:00:00 14,8 -1,3 0,0
26.03.2017 13:00:00 12,0 -2,2 0,0
26.03.2017 12:00:00 9,8 -2,2 0,0
26.03.2017 11:00:00 9,5 0,1 0,0
26.03.2017 10:00:00 6,1 1,3 0,0
26.03.2017 09:00:00 1,8 -1,4 0,0
26.03.2017 08:00:00 0,6 -3,7 0,0
26.03.2017 07:00:00 0,8 -3,7 0,0
26.03.2017 06:00:00 0,9 -3,6 0,0
26.03.2017 05:00:00 0,6 -3,7 0,0
26.03.2017 04:00:00 1,2 -2,9 0,0
26.03.2017 03:00:00 1,8 -2,5 0,0
26.03.2017 02:00:00 2,4 -2,2 0,0
26.03.2017 01:00:00 3,8 -0,8 0,0
26.03.2017 00:00:00 3,2 -1,8 0,0
25.03.2017 23:00:00 4,3 -1,5 0,0
25.03.2017 22:00:00 6,8 -2,5 0,0
25.03.2017 21:00:00 7,5 -2,3 0,0
25.03.2017 20:00:00 9,5 -3,0 0,0
25.03.2017 19:00:00 12,8 -4,0 0,0
25.03.2017 18:00:00 14,7 -2,0 0,0
25.03.2017 17:00:00 14,5 -1,4 0,0
25.03.2017 16:00:00 15,9 -0,1 0,0
25.03.2017 15:00:00 15,2 -0,6 0,0
25.03.2017 14:00:00 15,0 -0,6 0,0
25.03.2017 13:00:00 14,2 1,4 0,0
25.03.2017 12:00:00 13,0 -0,2 0,0
25.03.2017 11:00:00 11,0 0,5 0,0
25.03.2017 10:00:00 8,1 -0,1 0,0
25.03.2017 09:00:00 6,5 -0,5 0,0
25.03.2017 08:00:00 5,9 -1,5 0,0
25.03.2017 07:00:00 5,8 -2,8 0,0
25.03.2017 06:00:00 5,3 -3,5 0,0
25.03.2017 05:00:00 5,2 -3,3 0,0
25.03.2017 04:00:00 3,7 -2,0 0,0
25.03.2017 03:00:00 4,0 -1,6 0,0
25.03.2017 02:00:00 5,5 -1,4 0,0
25.03.2017 01:00:00 5,9 -0,1 0,0
25.03.2017 00:00:00 4,4 0,6 0,0
24.03.2017 23:00:00 5,9 0,7 0,0
24.03.2017 22:00:00 5,3 0,9 0,0
24.03.2017 21:00:00 6,2 1,4 0,0
24.03.2017 20:00:00 6,8 2,0 0,0
24.03.2017 19:00:00 8,7 2,7 0,0
24.03.2017 18:00:00 9,6 2,7 0,0
24.03.2017 17:00:00 10,4 3,2 0,0
24.03.2017 16:00:00 10,6 3,6 0,0
24.03.2017 15:00:00 10,1 3,7 0,0
24.03.2017 14:00:00 9,0 3,3 0,0
24.03.2017 13:00:00 8,4 2,7 0,0
24.03.2017 12:00:00 7,7 2,4 0,0
24.03.2017 11:00:00 6,8 2,0 0,0
24.03.2017 10:00:00 5,8 1,2 0,0
24.03.2017 09:00:00 4,8 0,7 0,0
24.03.2017 08:00:00 3,9 -0,1 0,0
24.03.2017 07:00:00 3,8 -0,3 0,0
24.03.2017 06:00:00 3,0 -0,4 0,0
24.03.2017 05:00:00 3,5 -0,3 0,0
24.03.2017 04:00:00 2,8 -0,4 0,0
24.03.2017 03:00:00 2,5 -0,6 0,0
24.03.2017 02:00:00 2,8 -0,8 0,0
24.03.2017 01:00:00 2,7 -0,6 0,0
24.03.2017 00:00:00 3,2 -0,8 0,0
23.03.2017 23:00:00 3,8 -0,4 0,0
23.03.2017 22:00:00 4,0 -0,7 0,0
23.03.2017 21:00:00 3,9 0,0 0,0
23.03.2017 20:00:00 3,9 0,2 0,0
23.03.2017 19:00:00 7,1 -0,2 0,0
23.03.2017 18:00:00 8,7 -0,3 0,0
23.03.2017 17:00:00 7,8 0,3 0,0
23.03.2017 16:00:00 7,1 -1,0 0,0
23.03.2017 15:00:00 8,1 0,1 0,0
23.03.2017 14:00:00 6,1 -1,7 0,0
23.03.2017 13:00:00 7,0 0,0 0,0
23.03.2017 12:00:00 5,6 -0,1 0,0
23.03.2017 11:00:00 4,7 0,0 0,0
23.03.2017 10:00:00 1,7 -0,6 0,0
23.03.2017 09:00:00 -1,2 -1,5 0,0
23.03.2017 08:00:00 -1,8 -2,3 0,0
23.03.2017 07:00:00 -1,1 -1,8 0,0
23.03.2017 06:00:00 0,2 -1,1 0,0
23.03.2017 05:00:00 0,3 -1,1 0,0
23.03.2017 04:00:00 0,7 -1,5 0,0
23.03.2017 03:00:00 1,4 -1,9 0,0
23.03.2017 02:00:00 1,8 0,1 0,0
23.03.2017 01:00:00 0,6 -0,4 0,0
23.03.2017 00:00:00 1,6 0,0 0,0
22.03.2017 23:00:00 1,7 -0,4 0,0
22.03.2017 22:00:00 1,8 -0,3 0,0
22.03.2017 21:00:00 1,6 -1,0 0,0
22.03.2017 20:00:00 2,0 -0,6 0,0
22.03.2017 19:00:00 3,3 0,4 0,0
22.03.2017 18:00:00 4,6 0,5 0,0
22.03.2017 17:00:00 4,9 0,2 0,0
22.03.2017 16:00:00 5,2 -0,1 0,0
22.03.2017 15:00:00 6,1 1,7 0,0
22.03.2017 14:00:00 6,0 2,0 0,0
22.03.2017 13:00:00 4,0 2,3 0,0
22.03.2017 12:00:00 2,2 2,1 0,6
22.03.2017 11:00:00 0,8 0,8 0,0
22.03.2017 10:00:00 - - -

tt = Temperatura
td = dewpoint
rr = precipitazioni

Stazioni seguenti

WeatherPro
AMSI
MeteoEarth